Tracking 30101 objects as of 14-Dec-2024
HD Live streaming from Space Station
objects crossing your sky now

COSMOS 1375 DEB

Track COSMOS 1375 DEB now!
10-day predictions


NORAD ID: 17803
Int'l Code: 1982-055AV
Perigee: 941.9 km
Apogee: 996.5 km
Inclination: 65.8 °
Period: 104.3 minutes
Semi major axis: 7340 km
RCS: 0.014 m2 (small)
Launch date: June 6, 1982
Source: Commonwealth of Independent States (former USSR) (CIS)
Launch site: PLESETSK MISSILE AND SPACE COMPLEX (PKMTR)

Note: This is SATELLITE DEBRIS
Your satellite tracking list
Your tracking list is empty




NASA's NSSDC Master Catalog

Two Line Element Set (TLE):
1 17803U 82055AV  24347.93245922  .00000379  00000-0  43713-3 0  9995
2 17803  65.8304 163.6527 0037235 150.5283   1.1151 13.80510992967774
Source of the keplerian elements: AFSPC